Regional Weather Roundup
Issued by NWS

Home | Current Version | Previous Version | Text Only | Print | Product List | Glossary Off
Versions: 1 2 3 4 5 6 7 8 9 10 11 12 13 14 15 16 17 18 19 20 21 22 23 24 25 26 27 28 29 30 31 32 33 34 35 36 37 38 39 40 41 42 43 44 45 46 47 48 49 50

000
ASUS44 KFWD 300415
RWRTX
NORTH TEXAS HOURLY WEATHER ROUNDUP
NATIONAL WEATHER SERVICE FORT WORTH TX
1100 PM CDT SAT AUG 29 2015

NOTE: "FAIR" INDICATES FEW OR NO CLOUDS BELOW 12,000 FEET WITH NO
SIGNIFICANT WEATHER AND/OR OBSTRUCTIONS TO VISIBILITY.

TXZ118-119-300500-
DALLAS/FORT WORTH METROPLEX

CITY           SKY/WX    TMP DP  RH WIND       PRES   REMARKS
DFW AIRPORT    MOCLDY    80  64  58 S5        29.97R
DALLAS LOVE    CLOUDY    85  63  47 CALM      29.97S
FTW MEACHAM    MOCLDY    80  65  59 S3        29.97S
DAL-EXECUTIVE  CLOUDY    79  63  57 S5        29.98R
FTW-ALLIANCE   MOCLDY    78  64  61 S3        29.98R
FTW-NAS-JRB    CLOUDY    80  63  55 S5        29.98S
FTW-SPINKS     CLOUDY    75  71  86 CALM      30.00R FOG
ARLINGTON      CLOUDY    80  65  59 S5        29.98R
GRAND PRAIRIE  CLOUDY    81  66  59 S3        30.00R
ADDISON        MOCLDY    85  65  52 CALM      29.99S
MESQUITE       CLOUDY    80  66  61 S3        29.98S
LANCASTER      CLOUDY    80  63  55 S3        29.99R
$$

TXZ091>094-102>105-117-120-121-131>134-300500-
NORTH CENTRAL TEXAS

CITY           SKY/WX    TMP DP  RH WIND       PRES   REMARKS
SHRMAN/DENISON PTCLDY    82  65  57 S9        29.97S
GAINESVILLE    PTCLDY    78  60  53 S7        29.98R
BOWIE          PTCLDY    78  53  41 CALM      29.99R
BRIDGEPORT     MOCLDY    76  63  63 SW3       30.00R
DECATUR        PTCLDY    75  62  62 SW7       30.00R
DENTON         MOCLDY    80  63  55 SW3       29.97R
MCKINNEY       MOCLDY    81  67  62 SE3       29.97S
GREENVILLE     CLOUDY    81  68  65 CALM      29.98S
ROCKWALL       CLOUDY    82  68  62 S3        29.97S
TERRELL        CLOUDY    83  67  58 S6        29.99R
WAXAHACHIE     CLOUDY    80  64  56 CALM      30.00R
CLEBURNE         N/A     79  72  78 SW3       30.01S
GRANBURY       MOCLDY    80  63  55 SW5       30.00F
$$

TXZ083>090-098>101-113>116-127>130-139>142-154-155-300500-
WESTERN NORTH TEXAS

CITY           SKY/WX    TMP DP  RH WIND       PRES   REMARKS
WICHITA FALLS  CLOUDY    82  54  37 N7        29.98R
WF-KICKAPOO    MOCLDY    85  50  29 NW3       29.99R
VERNON         CLOUDY    80  48  32 W3        30.01R
ABILENE        CLOUDY    72  64  76 N5        30.04S
ABILENE-DYESS  CLOUDY    72  62  70 S8        30.02S
BRECKENRIDGE   CLOUDY    79  55  43 CALM      30.01R
GRAHAM         MOCLDY    76  56  48 S3        29.99R
MINERAL WELLS  MOCLDY    74  67  78 SE7       29.99R
STEPHENVILLE   MOCLDY    77  60  56 CALM      30.03F
COMANCHE       CLOUDY    76  64  66 S5        30.02F
BROWNWOOD      CLOUDY    73  63  68 CALM      30.04S
COLEMAN        CLOUDY    74  62  64 SE3       30.05F
BRADY          PTCLDY    79  63  57 N5        30.06S
$$

TXZ143>147-156>162-174-175-300500-
CENTRAL TEXAS

CITY           SKY/WX    TMP DP  RH WIND       PRES   REMARKS
WACO           MOCLDY    85  59  41 CALM      30.00R
WACO-TSTC      PTCLDY    84  64  51 S10       29.99S
WACO-MCGREGOR  MOCLDY    85  65  51 S7G16     30.00R
HILLSBORO      CLOUDY    80  62  54 NW5       30.00R
CORSICANA      CLOUDY    84  66  54 S9        29.99R
MEXIA          MOCLDY    80  65  61 SE15      29.98S
HEARNE         PTCLDY    78  66  66 SE5       30.01R
CAMERON        PTCLDY    82  64  55 S7        29.99S
TEMPLE         MOCLDY    81  63  54 S8        30.01S
KILLEEN        CLOUDY    83  62  50 S7        30.02R
KILLEEN-SKYLRK CLOUDY    82  63  51 SE9       30.01S
FORT HOOD      CLOUDY    83  64  53 SE6       30.00S
GATESVILLE     CLOUDY    82  63  51 CALM      30.02F
HAMILTON       LGT RAIN  78  64  62 MISG      30.04S
$$

TXZ095>097-106>112-122>126-135>138-148>153-164>167-300500-
EAST TEXAS

CITY           SKY/WX    TMP DP  RH WIND       PRES   REMARKS
PARIS          MOCLDY    79  64  61 SE6       29.99R
SULPHUR SPRNGS PTCLDY    81  68  65 SE7       29.99F
MOUNT PLEASANT PTCLDY    75  69  81 SE5       30.00S
GILMER         CLEAR     76  70  81 CALM      29.99F
MINEOLA        PTCLDY    79  72  78 SE5       29.99S
TYLER          PTCLDY    78  69  73 SE7       29.99S
LONGVIEW       CLEAR     77  71  82 S3        29.99S
MARSHALL       PTCLDY    76  73  88 CALM      30.01S
ATHENS         MOCLDY    79  68  69 CALM      29.97S
JACKSONVILLE   PTCLDY    80  62  54 S7        30.04R
HENDERSON      CLEAR     74  69  84 CALM      30.01S
CENTER         FAIR      81  65  58 CALM      30.00S
NACOGDOCHES    PTCLDY    75  66  73 CALM      30.01R
LUFKIN         PTCLDY    77  63  61 S7        30.01R
$$

SUPPLEMENTAL OBSERVATIONS (CENTRAL)

CITY           SKY/WX    TMP DP  RH WIND       PRES   REMARKS
LAKE TEXOMA      N/A     82  64  54 S6          N/A
CADDO GRASSLND   N/A     81  68  65 S6          N/A
PAT MAYSE LAKE   N/A     81  68  65 SE9         N/A
ATHENS           N/A     82  70  65 SE5         N/A
LAKE LIMESTONE   N/A     79  63  57 S5          N/A
MCGREGOR         N/A     84  61  45 S8          N/A
$$

SUPPLEMENTAL OBSERVATIONS (WEST)

CITY           SKY/WX    TMP DP  RH WIND       PRES   REMARKS
MILLERS CREEK    N/A     75  48  38 W3          N/A
LBJ GRASSLAND    N/A     72  66  83 S5          N/A
GRANBURY         N/A     81  63  54 W5          N/A
COMANCHE         N/A    N/A N/A N/A SW6         N/A
HAMBY            N/A     72  61  68 SE3         N/A
$$

SUPPLEMENTAL OBSERVATIONS (EAST)

CITY           SKY/WX    TMP DP  RH WIND       PRES   REMARKS
CLARKSVILLE      N/A     77  68  73 SE3         N/A
TEXARKANA        N/A     73  72  94 CALM        N/A
LINDEN           N/A     73  70  88 CALM        N/A
CADDO LAKE       N/A     72  70  94 CALM        N/A
GILMER           N/A     73  68  83 CALM        N/A
HENDERSON        N/A     75  66  73 S3          N/A
LUFKIN           N/A     75  64  69 MISG        N/A
N SABINE NF      N/A     75  63  64 MISG        N/A
S SABINE NF      N/A     73  64  73 S1          N/A
$$

SUPPLEMENTAL OBSERVATIONS ARE A COLLECTION OF AUTOMATED INSTRUMENTS
THAT ARE MAINTAINED BY A VARIETY OF FEDERAL AND STATE AGENCIES.
CERTAIN ELEMENTS...SUCH AS HUMIDITY VALUES AND SUSTAINED WIND
SPEEDS...MAY BE APPROXIMATED.



USA.gov is the U.S. government's official web portal to all federal, state and local government web resources and services.